Erie, PA

9:06 AM EST on December 11, 2019 (GMT -0500)
Erie International

Weather History for KERI - October, 2019

Change the Weather History Date:

Wednesday, October 23, 2019

  Actual Average Record
Temperature  
Mean Temperature 53 °F 51 °F  
Max Temperature 59 °F 59 °F 79 °F (1963)
Min Temperature 47 °F 43 °F 29 °F (1982)
Degree Days  
Heating Degree Days 12 14  
Month to date heating degree days 178 255  
Since 1 July heating degree days 190 379  
Cooling Degree Days 0 0  
Month to date cooling degree days 22 7  
Year to date cooling degree days 847 636  
Growing Degree Days 3 (Base 50)    
Moisture  
Dew Point 34 °F    
Average Humidity 51    
Maximum Humidity 66    
Minimum Humidity 39    
Precipitation  
Precipitation T in 0.12 in 1.81 in (2007)
Month to date precipitation 1.82 3.08  
Year to date precipitation 31.45 33.52  
Snow  
Snow 0.00 in 0.00 in - ()
Month to date snowfall 0.0 0.0  
Since 1 July snowfall 0.0 0.0  
Since 1 September snowfall 0.0 0.0  
Snow Depth 0.00 in    
Sea Level Pressure  
Sea Level Pressure 29.98 in    
Wind  
Wind Speed 12 mph ()    
Max Wind Speed 26 mph    
Max Gust Speed 39 mph    
Visibility 10.0 miles    
Events      
T = Trace of Precipitation, MM = Missing Value Source: Averaged Metar Reports

Daily Weather History Graph

Daily Weather History Graph

Search for Another Location

Airport or City:

Astronomy

Oct. 23, 2019 Rise Set
Actual Time 7:42 AM EDT 6:27 PM EDT
Civil Twilight 7:13 AM EDT 6:55 PM EDT
Nautical Twilight 6:41 AM EDT 7:28 PM EDT
Astronomical Twilight 6:08 AM EDT 8:00 PM EDT
Moon 1:51 AM EDT (10/23) 4:23 PM EDT (10/23)
Length of Visible Light 11h 41m
Length of Day
10h 44m
Waning Crescent, 27% of the Moon is Illuminated
Oct 23
Waning Crescent
Oct 27
New
Nov 4
First Quarter
Nov 12
Full
Nov 19
Last Quarter

Hourly Weather History & Observations

Time (EDT) Temp. Dew Point Humidity Pressure Visibility Wind Dir Wind Speed Gust Speed Precip Events Conditions
12:51 AM 52.0 °F 37.9 °F 59% 29.83 in 10.0 mi SW 11.5 mph - N/A   Scattered Clouds
1:51 AM 51.1 °F 36.0 °F 56% 29.83 in 10.0 mi SSW 11.5 mph - N/A   Clear
2:51 AM 51.1 °F 36.0 °F 56% 29.83 in 10.0 mi SSW 12.7 mph - N/A   Clear
3:51 AM 48.9 °F 36.0 °F 61% 29.84 in 10.0 mi SSW 11.5 mph - N/A   Partly Cloudy
4:51 AM 50.0 °F 37.0 °F 61% 29.86 in 10.0 mi SW 11.5 mph - N/A   Mostly Cloudy
5:51 AM 48.0 °F 37.0 °F 66% 29.88 in 10.0 mi SSW 13.8 mph - 0.00 in   Mostly Cloudy
6:51 AM 48.0 °F 37.0 °F 66% 29.89 in 10.0 mi SSW 11.5 mph - N/A   Clear
7:51 AM 48.0 °F 37.0 °F 66% 29.91 in 10.0 mi SSW 12.7 mph - N/A   Clear
8:51 AM 48.9 °F 37.0 °F 64% 29.93 in 10.0 mi SSW 11.5 mph - N/A   Clear
9:51 AM 51.1 °F 35.1 °F 54% 29.96 in 10.0 mi SW 16.1 mph 25.3 mph N/A   Clear
10:51 AM 53.1 °F 33.1 °F 47% 29.98 in 10.0 mi SW 20.7 mph 28.8 mph N/A   Partly Cloudy
11:51 AM 54.0 °F 32.0 °F 43% 30.00 in 10.0 mi WSW 17.3 mph 29.9 mph N/A   Mostly Cloudy
12:51 PM 54.0 °F 33.1 °F 45% 30.02 in 10.0 mi WSW 18.4 mph 29.9 mph N/A   Partly Cloudy
1:51 PM 55.9 °F 34.0 °F 44% 30.01 in 10.0 mi WSW 17.3 mph 31.1 mph N/A   Clear
2:51 PM 57.0 °F 32.0 °F 39% 30.02 in 10.0 mi WSW 18.4 mph 32.2 mph N/A   Clear
3:51 PM 57.9 °F 34.0 °F 41% 30.03 in 10.0 mi WSW 19.6 mph 31.1 mph N/A   Clear
4:51 PM 57.9 °F 36.0 °F 44% 30.04 in 10.0 mi WSW 15.0 mph 25.3 mph N/A   Clear
5:51 PM 57.9 °F 33.1 °F 39% 30.06 in 10.0 mi WSW 11.5 mph - N/A   Clear
6:51 PM 53.1 °F 34.0 °F 48% 30.06 in 10.0 mi South 8.1 mph - N/A   Mostly Cloudy
7:51 PM 52.0 °F 32.0 °F 47% 30.08 in 10.0 mi South 9.2 mph - N/A   Clear
8:51 PM 53.1 °F 32.0 °F 45% 30.09 in 10.0 mi South 12.7 mph - N/A   Clear
9:51 PM 53.1 °F 32.0 °F 45% 30.10 in 10.0 mi South 11.5 mph - N/A   Clear
10:51 PM 53.1 °F 32.0 °F 45% 30.11 in 10.0 mi South 17.3 mph - N/A   Clear
11:51 PM 53.1 °F 30.9 °F 43% 30.11 in 10.0 mi South 16.1 mph 24.2 mph N/A   Clear